When you browse on this site, cookies collect data to enhance your experience and personalize the content and advertising you see.
Visit our Privacy Policy to learn more. By continuing to use the site, you agree to this use of cookies and data.
  • In Belgium
  • List of Countries
  • For 7 days
  • Water Temperature
  • Satellite Maps
  • Weather Map
  • Weather Widgets
  • user-avatar
    Login

    Hourly Weather Sarajevo

    Today, 25 April, Thursday

    Time Temperature Precipitation Wind Pressure Humidity
    00:00 +9°C° 0 mm 2 mps 690 mmHg 79%
    01:00 +10°C° 0 mm 1 mps 690 mmHg 78%
    02:00 +10°C° 0 mm 1 mps 690 mmHg 79%
    03:00 +9°C° 0 mm 2 mps 690 mmHg 80%
    04:00 +9°C° 0 mm 2 mps 690 mmHg 81%
    05:00 +10°C° 0 mm 2 mps 691 mmHg 78%
    06:00 +13°C° 0 mm 2 mps 691 mmHg 75%
    07:00 +14°C° 0 mm 1 mps 692 mmHg 70%
    08:00 +16°C° 0 mm 1 mps 692 mmHg 65%
    09:00 +18°C° 0 mm 2 mps 692 mmHg 60%
    10:00 +19°C° 0 mm 2 mps 693 mmHg 54%
    11:00 +20°C° 0 mm 2 mps 693 mmHg 53%
    12:00 +21°C° 0 mm 3 mps 693 mmHg 52%
    13:00 +21°C° 0 mm 3 mps 693 mmHg 51%
    14:00 +21°C° 0.1 mm 3 mps 692 mmHg 53%
    15:00 +20°C° 0.1 mm 2 mps 692 mmHg 55%
    16:00 +20°C° 0.1 mm 2 mps 692 mmHg 57%
    17:00 +18°C° 0 mm 2 mps 691 mmHg 65%
    18:00 +16°C° 0 mm 2 mps 691 mmHg 74%
    19:00 +14°C° 0 mm 1 mps 690 mmHg 83%
    20:00 +13°C° 0 mm 1 mps 690 mmHg 85%
    21:00 +13°C° 0 mm 1 mps 691 mmHg 86%
    22:00 +12°C° 0 mm 2 mps 691 mmHg 88%
    23:00 +12°C° 0 mm 2 mps 691 mmHg 85%

    Tomorrow, 26 April, Friday

    Time Temperature Precipitation Wind Pressure Humidity
    00:00 +10°C° 0 mm 2 mps 690 mmHg 83%
    01:00 +10°C° 0 mm 2 mps 690 mmHg 80%
    02:00 +10°C° 0 mm 2 mps 690 mmHg 78%
    03:00 +10°C° 0 mm 2 mps 690 mmHg 75%
    04:00 +10°C° 0 mm 2 mps 689 mmHg 73%
    05:00 +12°C° 0 mm 2 mps 690 mmHg 71%
    06:00 +14°C° 0 mm 2 mps 690 mmHg 69%
    07:00 +15°C° 0 mm 2 mps 690 mmHg 67%
    08:00 +17°C° 0 mm 2 mps 690 mmHg 61%
    09:00 +19°C° 0 mm 2 mps 690 mmHg 55%
    10:00 +21°C° 0 mm 2 mps 691 mmHg 50%
    11:00 +21°C° 0 mm 3 mps 690 mmHg 49%
    12:00 +22°C° 0 mm 3 mps 690 mmHg 48%
    13:00 +22°C° 0 mm 3 mps 690 mmHg 47%
    14:00 +22°C° 0 mm 3 mps 689 mmHg 50%
    15:00 +21°C° 0 mm 3 mps 689 mmHg 52%
    16:00 +20°C° 0 mm 3 mps 688 mmHg 55%
    17:00 +19°C° 0 mm 3 mps 688 mmHg 62%
    18:00 +17°C° 0 mm 2 mps 688 mmHg 69%
    19:00 +15°C° 0 mm 2 mps 687 mmHg 77%
    20:00 +14°C° 0 mm 2 mps 687 mmHg 77%
    21:00 +14°C° 0 mm 2 mps 687 mmHg 78%
    22:00 +13°C° 0 mm 2 mps 687 mmHg 79%
    23:00 +13°C° 0 mm 2 mps 687 mmHg 78%

    Day after tomorrow, 27 April, Saturday

    Time Temperature Precipitation Wind Pressure Humidity
    00:00 +13°C° 0 mm 2 mps 687 mmHg 76%
    01:00 +12°C° 0 mm 2 mps 687 mmHg 75%
    02:00 +12°C° 0.1 mm 2 mps 687 mmHg 76%
    03:00 +12°C° 0.1 mm 2 mps 687 mmHg 78%
    04:00 +12°C° 0.1 mm 2 mps 686 mmHg 80%
    05:00 +12°C° 0.3 mm 2 mps 687 mmHg 82%
    06:00 +12°C° 0.3 mm 2 mps 687 mmHg 84%
    07:00 +13°C° 0.3 mm 2 mps 687 mmHg 86%
    08:00 +13°C° 0.6 mm 2 mps 687 mmHg 84%
    09:00 +14°C° 0.6 mm 2 mps 687 mmHg 82%
    10:00 +15°C° 0.6 mm 2 mps 688 mmHg 80%
    11:00 +14°C° 0.9 mm 3 mps 688 mmHg 77%
    12:00 +14°C° 0.9 mm 3 mps 687 mmHg 74%
    13:00 +14°C° 0.9 mm 3 mps 687 mmHg 72%
    14:00 +14°C° 0.4 mm 3 mps 687 mmHg 66%
    15:00 +14°C° 0.4 mm 3 mps 687 mmHg 61%
    16:00 +13°C° 0.4 mm 3 mps 687 mmHg 56%
    17:00 +12°C° 0 mm 3 mps 687 mmHg 63%
    18:00 +10°C° 0 mm 2 mps 687 mmHg 70%
    19:00 +9°C° 0 mm 1 mps 687 mmHg 77%
    20:00 +8°C° 0 mm 1 mps 687 mmHg 80%
    21:00 +7°C° 0 mm 1 mps 687 mmHg 83%
    22:00 +7°C° 0 mm 1 mps 687 mmHg 86%
    23:00 +6°C° 0 mm 1 mps 687 mmHg 86%

    28 April, Sunday

    Time Temperature Precipitation Wind Pressure Humidity
    00:00 +6°C° 0 mm 1 mps 687 mmHg 86%
    01:00 +6°C° 0 mm 1 mps 687 mmHg 86%
    02:00 +6°C° 0 mm 1 mps 687 mmHg 85%
    03:00 +4°C° 0 mm 0 mps 686 mmHg 84%
    04:00 +4°C° 0 mm 0 mps 686 mmHg 84%
    05:00 +7°C° 0 mm 1 mps 687 mmHg 79%
    06:00 +8°C° 0 mm 1 mps 687 mmHg 74%
    07:00 +10°C° 0 mm 1 mps 687 mmHg 70%
    08:00 +12°C° 0 mm 1 mps 688 mmHg 64%
    09:00 +14°C° 0 mm 1 mps 688 mmHg 57%
    10:00 +15°C° 0 mm 1 mps 688 mmHg 51%
    11:00 +16°C° 0 mm 1 mps 688 mmHg 51%
    12:00 +16°C° 0 mm 2 mps 687 mmHg 51%
    13:00 +16°C° 0 mm 2 mps 687 mmHg 50%
    14:00 +16°C° 0 mm 3 mps 687 mmHg 54%
    15:00 +14°C° 0 mm 3 mps 686 mmHg 57%
    16:00 +13°C° 0 mm 3 mps 686 mmHg 60%
    17:00 +13°C° 0 mm 2 mps 685 mmHg 68%
    18:00 +10°C° 0 mm 2 mps 685 mmHg 76%
    19:00 +9°C° 0 mm 1 mps 685 mmHg 84%
    20:00 +9°C° 0 mm 1 mps 685 mmHg 84%
    21:00 +9°C° 0 mm 1 mps 685 mmHg 83%
    22:00 +9°C° 0 mm 1 mps 685 mmHg 83%
    23:00 +9°C° 0.8 mm 1 mps 685 mmHg 86%

    29 April, Monday

    Time Temperature Precipitation Wind Pressure Humidity
    00:00 +9°C° 0.8 mm 1 mps 685 mmHg 90%
    01:00 +8°C° 0.8 mm 1 mps 685 mmHg 93%
    02:00 +8°C° 0.9 mm 1 mps 684 mmHg 93%
    03:00 +8°C° 0.9 mm 1 mps 684 mmHg 93%
    04:00 +7°C° 0.9 mm 0 mps 684 mmHg 93%
    05:00 +8°C° 0.4 mm 1 mps 684 mmHg 93%
    06:00 +8°C° 0.4 mm 1 mps 684 mmHg 92%
    07:00 +9°C° 0.4 mm 1 mps 684 mmHg 92%
    08:00 +8°C° 0.3 mm 2 mps 684 mmHg 89%
    09:00 +9°C° 0.3 mm 2 mps 684 mmHg 86%
    10:00 +10°C° 0.3 mm 3 mps 685 mmHg 83%
    11:00 +10°C° 0.4 mm 3 mps 684 mmHg 83%
    12:00 +10°C° 0.4 mm 3 mps 684 mmHg 83%
    13:00 +10°C° 0.4 mm 3 mps 684 mmHg 84%
    14:00 +10°C° 0.5 mm 3 mps 684 mmHg 85%
    15:00 +9°C° 0.5 mm 3 mps 684 mmHg 87%
    16:00 +9°C° 0.5 mm 3 mps 683 mmHg 88%
    17:00 +8°C° 0.2 mm 2 mps 683 mmHg 90%
    18:00 +8°C° 0.2 mm 2 mps 684 mmHg 92%
    19:00 +8°C° 0.2 mm 1 mps 684 mmHg 94%
    20:00 +8°C° 0 mm 1 mps 684 mmHg 95%
    21:00 +7°C° 0 mm 1 mps 684 mmHg 96%
    22:00 +6°C° 0 mm 1 mps 684 mmHg 98%
    23:00 +6°C° 0 mm 1 mps 684 mmHg 98%

    30 April, Tuesday

    Time Temperature Precipitation Wind Pressure Humidity
    00:00 +6°C° 0 mm 1 mps 684 mmHg 98%
    01:00 +6°C° 0 mm 1 mps 684 mmHg 98%
    02:00 +6°C° 0 mm 1 mps 684 mmHg 97%
    03:00 +6°C° 0 mm 1 mps 683 mmHg 97%
    04:00 +4°C° 0 mm 0 mps 683 mmHg 96%
    05:00 +5°C° 0.1 mm 0 mps 684 mmHg 93%
    06:00 +6°C° 0.1 mm 0 mps 684 mmHg 91%
    07:00 +6°C° 0.1 mm 0 mps 684 mmHg 88%
    08:00 +9°C° 0.1 mm 1 mps 684 mmHg 82%
    09:00 +10°C° 0.1 mm 1 mps 685 mmHg 77%
    10:00 +12°C° 0.1 mm 1 mps 685 mmHg 72%
    11:00 +12°C° 0.2 mm 1 mps 685 mmHg 71%
    12:00 +12°C° 0.2 mm 1 mps 685 mmHg 71%
    13:00 +13°C° 0.2 mm 1 mps 685 mmHg 71%
    14:00 +12°C° 0.5 mm 2 mps 685 mmHg 74%
    15:00 +12°C° 0.5 mm 2 mps 685 mmHg 76%
    16:00 +12°C° 0.5 mm 2 mps 684 mmHg 79%
    17:00 +11°C° 0.6 mm 1 mps 684 mmHg 85%
    18:00 +10°C° 0.6 mm 1 mps 685 mmHg 90%
    19:00 +9°C° 0.6 mm 1 mps 685 mmHg 95%
    20:00 +9°C° 0.6 mm 1 mps 685 mmHg 96%
    21:00 +9°C° 0.6 mm 1 mps 685 mmHg 97%
    22:00 +9°C° 0.6 mm 1 mps 685 mmHg 98%
    23:00 +8°C° 0.2 mm 1 mps 685 mmHg 98%
    Show more